FW2316 Weather Reports


Display with metric or nautical units.
time (UTC)temp
F
wind
direction
speed
MPH
gust
MPH
rain 1hr
in
rain 24hr
in
rain mn
in
humidity
%
barometer
mb
20220818220516 82 319 0.0 0.0 0.00 0.00 0.00 63 1003.8
20220818220015 82 319 0.0 0.0 0.00 0.00 0.00 63 1003.7
20220818215514 82 320 0.0 0.0 0.00 0.00 0.00 62 1003.6
20220818215021 82 321 0.0 1.0 0.00 0.00 0.00 61 1003.7
20220818214514 81 98 0.0 1.0 0.00 0.00 0.00 61 1003.7
20220818214015 82 76 0.0 1.0 0.00 0.00 0.00 61 1003.7
20220818213514 82 74 0.0 1.0 0.00 0.00 0.00 61 1003.7
20220818213031 80 221 0.0 2.0 0.00 0.00 0.00 66 1003.7
20220818212012 80 221 0.0 2.0 0.00 0.00 0.00 68 1003.6
20220818211524 80 221 0.0 3.0 0.00 0.00 0.00 69 1003.6
20220818211014 80 221 1.0 5.0 0.00 0.00 0.00 68 1003.7
20220818210510 80 221 2.0 4.0 0.00 0.00 0.00 67 1003.6
20220818210013 79 221 2.0 3.0 0.00 0.00 0.00 69 1003.6
20220818205507 79 221 0.0 3.0 0.00 0.00 0.00 68 1003.6
20220818205009 79 221 0.0 2.0 0.00 0.00 0.00 67 1003.5
20220818204508 79 221 0.0 2.0 0.00 0.00 0.00 68 1003.4
20220818204008 80 221 0.0 4.0 0.00 0.00 0.00 66 1003.5
20220818203506 80 221 0.0 4.0 0.00 0.00 0.00 68 1003.4
20220818203005 78 221 0.0 4.0 0.00 0.00 0.00 70 1003.4
20220818202005 78 220 1.0 4.0 0.00 0.00 0.00 71 1003.6
20220818201504 78 221 2.0 4.0 0.00 0.00 0.00 70 1003.5
20220818201004 78 221 0.0 3.0 0.00 0.00 0.00 71 1003.7
20220818200503 78 221 1.0 4.0 0.00 0.00 0.00 72 1003.8
20220818200001 77 221 1.0 4.0 0.00 0.00 0.00 72 1003.8
20220818195501 77 221 0.0 3.0 0.00 0.00 0.00 74 1003.7
20220818195108 77 221 0.0 4.0 0.00 0.00 0.00 73 1003.6
20220818194559 77 221 1.0 4.0 0.00 0.00 0.00 74 1003.7
20220818194058 77 221 2.0 3.0 0.00 0.00 0.00 73 1003.7
20220818193602 77 222 1.0 4.0 0.00 0.00 0.00 74 1003.7
20220818193057 77 222 0.0 4.0 0.00 0.00 0.00 65 1003.6
20220818192059 78 100 0.0 1.0 0.00 0.00 0.00 66 1003.5
20220818191616 78 100 0.0 1.0 0.00 0.00 0.00 66 1003.7
20220818191101 78 329 0.0 2.0 0.00 0.00 0.00 68 1003.7
20220818190558 77 313 0.0 2.0 0.00 0.00 0.00 68 1003.7
20220818190100 77 113 0.0 2.0 0.00 0.00 0.00 69 1003.7
20220818185555 77 134 0.0 2.0 0.00 0.00 0.00 69 1003.6
20220818185056 77 91 0.0 2.0 0.00 0.00 0.00 70 1003.6
20220818184633 77 226 0.0 5.0 0.00 0.00 0.00 70 1003.7
20220818184055 77 69 1.0 4.0 0.00 0.00 0.00 69 1003.9
20220818183555 77 187 0.0 3.0 0.00 0.00 0.00 70 1003.9
20220818183116 78 173 0.0 0.0 0.00 0.00 0.00 69 1003.7
20220818182102 77 173 0.0 0.0 0.00 0.00 0.00 68 1003.7
20220818181555 77 173 0.0 0.0 0.00 0.00 0.00 70 1003.7
20220818181054 76 173 0.0 2.0 0.00 0.00 0.00 71 1003.8
20220818180554 76 173 0.0 4.0 0.00 0.00 0.00 72 1003.5
20220818180054 76 221 0.0 7.0 0.00 0.00 0.00 72 1004.0
20220818175553 76 217 2.0 7.0 0.00 0.00 0.00 72 1004.3
20220818175056 77 218 0.0 4.0 0.00 0.00 0.00 71 1003.9
20220818174608 76 267 0.0 1.0 0.00 0.00 0.00 71 1003.4
20220818174053 76 245 0.0 4.0 0.00 0.00 0.00 71 1003.5
20220818173556 76 254 0.0 4.0 0.00 0.00 0.00 71 1003.4
20220818173105 76 299 1.0 3.0 0.00 0.00 0.00 71 1003.2
20220818172052 76 34 0.0 3.0 0.00 0.00 0.00 72 1003.4
20220818171608 76 306 0.0 3.0 0.00 0.00 0.00 71 1003.5
20220818171055 77 311 0.0 3.0 0.00 0.00 0.00 71 1003.5
20220818170604 77 318 0.0 3.0 0.00 0.00 0.00 70 1003.6
20220818170123 77 317 1.0 3.0 0.00 0.00 0.00 69 1003.7
20220818165556 77 10 0.0 1.0 0.00 0.00 0.00 70 1003.8
20220818165052 77 10 0.0 1.0 0.00 0.00 0.00 69 1003.5
20220818164550 77 34 0.0 1.0 0.00 0.00 0.00 69 1003.4
20220818164055 77 153 0.0 0.0 0.00 0.00 0.00 69 1003.7
20220818163552 76 203 0.0 0.0 0.00 0.00 0.00 72 1003.8
20220818163047 76 202 0.0 0.0 0.00 0.00 0.00 76 1003.9
20220818162048 74 209 0.0 1.0 0.00 0.00 0.00 76 1004.0
20220818161612 74 194 0.0 1.0 0.00 0.00 0.00 77 1003.9
20220818161046 74 194 0.0 0.0 0.00 0.00 0.00 78 1003.9
20220818160544 73 194 0.0 1.0 0.00 0.00 0.00 79 1003.9
20220818160052 73 194 0.0 1.0 0.00 0.00 0.00 80 1003.8
20220818155547 72 194 0.0 1.0 0.00 0.00 0.00 81 1003.9
20220818155045 72 194 0.0 1.0 0.00 0.00 0.00 82 1003.9
20220818154614 71 194 0.0 1.0 0.00 0.00 0.00 83 1003.9
20220818154042 71 194 0.0 2.0 0.00 0.00 0.00 82 1004.0
20220818153540 71 192 1.0 2.0 0.00 0.00 0.00 82 1004.1
20220818153040 71 215 0.0 1.0 0.00 0.00 0.00 83 1004.1
20220818152040 71 259 0.0 1.0 0.00 0.00 0.00 83 1004.2
20220818151550 71 259 0.0 1.0 0.00 0.00 0.00 83 1004.1
20220818151040 71 260 0.0 0.0 0.00 0.00 0.00 83 1004.0
20220818150544 70 260 0.0 0.0 0.00 0.00 0.00 84 1004.0
20220818150039 70 259 0.0 0.0 0.00 0.00 0.00 85 1004.1
20220818145540 70 260 0.0 0.0 0.00 0.00 0.00 84 1003.9
20220818145039 70 260 0.0 2.0 0.00 0.00 0.00 85 1004.0
20220818144535 70 260 0.0 2.0 0.00 0.00 0.00 85 1004.0
20220818144031 70 259 0.0 1.0 0.00 0.00 0.00 85 1004.0
20220818143532 70 260 0.0 0.0 0.00 0.00 0.00 85 1004.0
20220818143030 70 259 0.0 1.0 0.00 0.00 0.00 84 1003.8
20220818142034 69 192 0.0 1.0 0.00 0.00 0.00 85 1003.7
20220818141551 69 192 0.0 1.0 0.00 0.00 0.00 85 1003.7
20220818141033 69 192 0.0 0.0 0.00 0.00 0.00 85 1003.7
20220818140530 69 192 0.0 0.0 0.00 0.00 0.00 85 1003.6
20220818140029 69 192 0.0 0.0 0.00 0.00 0.00 85 1003.4
20220818135534 69 192 0.0 1.0 0.00 0.00 0.00 85 1003.4
20220818135029 69 192 0.0 1.0 0.00 0.00 0.00 85 1003.3
20220818134536 69 192 0.0 0.0 0.00 0.00 0.00 85 1003.4
20220818134030 69 192 0.0 0.0 0.00 0.00 0.00 85 1003.4
20220818133538 69 192 0.0 0.0 0.00 0.00 0.00 85 1003.4
20220818133029 69 260 0.0 1.0 0.00 0.00 0.00 86 1003.2
20220818132036 69 260 0.0 2.0 0.00 0.00 0.00 85 1003.2
20220818131537 69 259 0.0 2.0 0.00 0.00 0.00 86 1003.4
20220818131026 69 259 0.0 2.0 0.00 0.00 0.00 85 1003.4
20220818130531 70 260 0.0 1.0 0.00 0.00 0.00 85 1003.3
20220818130027 70 260 0.0 2.0 0.00 0.00 0.00 85 1003.3
20220818125526 69 259 0.0 2.0 0.00 0.00 0.00 85 1003.2
20220818125032 70 260 1.0 2.0 0.00 0.00 0.00 85 1003.2
20220818124536 70 260 0.0 2.0 0.00 0.00 0.00 85 1003.2
20220818124024 70 259 1.0 2.0 0.00 0.00 0.00 85 1003.1
20220818123527 70 260 0.0 3.0 0.00 0.00 0.00 84 1002.9
20220818123024 70 260 1.0 3.0 0.00 0.00 0.00 84 1002.9
20220818122025 71 260 0.0 3.0 0.00 0.00 0.00 82 1002.7
20220818121528 71 259 0.0 4.0 0.00 0.00 0.00 82 1002.8
20220818121022 71 260 2.0 3.0 0.00 0.00 0.00 82 1002.9
20220818120522 71 259 0.0 0.0 0.00 0.00 0.00 82 1002.8
20220818120030 71 260 0.0 1.0 0.00 0.00 0.00 82 1002.9
20220818115522 71 260 0.0 1.0 0.00 0.00 0.00 82 1002.7
20220818115022 71 260 0.0 1.0 0.00 0.00 0.00 82 1002.9
20220818114539 71 260 0.0 2.0 0.00 0.00 0.00 82 1002.8
20220818114021 71 260 0.0 2.0 0.00 0.00 0.00 82 1003.0
20220818113521 71 260 0.0 3.0 0.00 0.00 0.00 82 1003.0
20220818113031 71 260 1.0 3.0 0.00 0.00 0.00 82 1003.1
20220818112021 71 260 0.0 2.0 0.00 0.00 0.00 81 1003.1
20220818111521 72 260 0.0 3.0 0.00 0.00 0.00 79 1003.0
20220818111024 72 260 1.0 3.0 0.00 0.00 0.00 79 1002.9
20220818110521 72 260 0.0 2.0 0.00 0.00 0.00 79 1002.9
20220818110021 72 260 0.0 2.0 0.00 0.00 0.00 79 1002.7
20220818105521 72 260 0.0 3.0 0.00 0.00 0.00 79 1003.0
20220818105020 72 260 0.0 3.0 0.00 0.00 0.00 80 1003.0
20220818104535 72 260 0.0 4.0 0.00 0.00 0.00 79 1002.9
20220818104020 72 260 2.0 3.0 0.00 0.00 0.00 79 1002.8
20220818103520 72 260 0.0 3.0 0.00 0.00 0.00 79 1003.0
20220818103030 72 260 1.0 6.0 0.00 0.00 0.00 80 1003.0
20220818102017 72 258 0.0 3.0 0.00 0.00 0.00 81 1003.0
20220818101518 72 258 0.0 0.0 0.00 0.00 0.00 82 1003.3
20220818101020 72 258 0.0 0.0 0.00 0.00 0.00 81 1003.2
20220818100519 72 258 0.0 0.0 0.00 0.00 0.00 81 1003.3
20220818100035 71 258 0.0 2.0 0.00 0.00 0.00 81 1003.4
20220818095517 71 258 0.0 2.0 0.00 0.00 0.00 81 1003.3
20220818095018 71 258 0.0 0.0 0.00 0.00 0.00 81 1003.4
20220818094520 71 258 0.0 0.0 0.00 0.00 0.00 81 1003.3
20220818094016 72 258 0.0 0.0 0.00 0.00 0.00 81 1003.2
20220818093516 71 258 0.0 0.0 0.00 0.00 0.00 81 1003.2
20220818093016 72 258 0.0 0.0 0.00 0.00 0.00 80 1003.0
20220818092016 72 258 0.0 0.0 0.00 0.00 0.00 81 1003.0
20220818091523 71 258 0.0 0.0 0.00 0.00 0.00 81 1003.1
20220818091016 71 258 0.0 0.0 0.00 0.00 0.00 81 1003.2
20220818090518 71 258 0.0 0.0 0.00 0.00 0.00 81 1003.0
20220818090015 71 258 0.0 0.0 0.00 0.00 0.00 82 1003.1
20220818085519 71 258 0.0 0.0 0.00 0.00 0.00 82 1003.2
20220818085014 71 258 0.0 0.0 0.00 0.00 0.00 82 1003.1
20220818084514 71 258 0.0 0.0 0.00 0.00 0.00 82 1003.1
20220818084014 71 258 0.0 0.0 0.00 0.00 0.00 82 1003.3
20220818083512 71 258 0.0 0.0 0.00 0.00 0.00 83 1003.4
20220818083026 71 258 0.0 0.0 0.00 0.00 0.00 83 1003.3
20220818082012 70 207 0.0 0.0 0.00 0.00 0.00 82 1003.5
20220818081522 70 207 0.0 0.0 0.00 0.00 0.00 82 1003.6
20220818081012 71 207 0.0 1.0 0.00 0.00 0.00 81 1003.6
20220818080511 71 207 0.0 1.0 0.00 0.00 0.00 82 1003.6
20220818080010 71 207 0.0 0.0 0.00 0.00 0.00 81 1003.6
20220818075511 71 207 0.0 0.0 0.00 0.00 0.00 81 1003.6
20220818075008 71 207 0.0 0.0 0.00 0.00 0.00 81 1003.5
20220818074510 71 207 0.0 0.0 0.00 0.00 0.00 80 1003.5
20220818074007 72 207 0.0 0.0 0.00 0.00 0.00 80 1003.6
20220818073509 72 207 0.0 0.0 0.00 0.00 0.00 80 1003.6
20220818073005 72 207 0.0 0.0 0.00 0.00 0.00 77 1003.7
20220818072008 72 199 0.0 0.0 0.00 0.00 0.00 77 1003.6
20220818071507 72 199 0.0 0.0 0.00 0.00 0.00 77 1003.7
20220818071005 72 199 0.0 0.0 0.00 0.00 0.00 77 1003.6
20220818070507 72 199 0.0 0.0 0.00 0.00 0.00 77 1003.6
20220818070012 72 199 0.0 0.0 0.00 0.00 0.00 77 1003.5
20220818065507 72 199 0.0 0.0 0.00 0.00 0.00 76 1003.5
20220818065003 72 199 0.0 0.0 0.00 0.00 0.00 76 1003.5
20220818064508 72 199 0.0 2.0 0.00 0.00 0.00 76 1003.3
20220818064002 72 199 0.0 3.0 0.00 0.00 0.00 77 1003.3
20220818063505 72 234 0.0 5.0 0.00 0.00 0.00 77 1003.3
20220818063004 72 200 0.0 3.0 0.00 0.00 0.00 77 1003.4
20220818062006 73 192 0.0 2.0 0.00 0.00 0.00 75 1003.4
20220818061502 73 119 0.0 1.0 0.00 0.00 0.00 74 1003.2
20220818061002 73 202 0.0 0.0 0.00 0.00 0.00 74 1003.0
20220818060503 73 203 0.0 1.0 0.00 0.00 0.00 73 1002.9
20220818060002 73 202 0.0 1.0 0.00 0.00 0.00 73 1003.0
20220818055506 73 202 0.0 0.0 0.00 0.00 0.00 73 1002.9
20220818055004 73 202 0.0 0.0 0.00 0.00 0.00 72 1002.9
20220818054502 73 202 0.0 1.0 0.00 0.00 0.00 72 1003.1
20220818054003 73 96 0.0 1.0 0.00 0.00 0.00 72 1002.9
20220818053502 73 96 0.0 0.0 0.00 0.00 0.00 72 1002.8
20220818053004 73 96 0.0 0.0 0.00 0.00 0.00 71 1003.0
20220818052007 73 213 0.0 0.0 0.00 0.00 0.00 74 1003.1
20220818051507 73 213 0.0 0.0 0.00 0.00 0.00 73 1003.2
20220818051002 73 213 0.0 1.0 0.00 0.00 0.00 73 1003.3
20220818050505 73 212 0.0 1.0 0.00 0.00 0.00 73 1003.2
20220818050005 74 213 0.0 0.0 0.00 0.00 0.00 73 1003.2
20220818045501 74 213 0.0 0.0 0.00 0.00 0.00 71 1003.3
20220818045009 74 213 0.0 0.0 0.00 0.00 0.00 70 1003.4
20220818044510 75 213 0.0 0.0 0.00 0.00 0.00 69 1003.4
20220818044002 75 213 0.0 0.0 0.00 0.00 0.00 68 1003.4
20220818043503 75 212 0.0 0.0 0.00 0.00 0.00 68 1003.4
20220818043002 75 212 0.0 0.0 0.00 0.00 0.00 67 1003.4
20220818042108 76 234 0.0 0.0 0.00 0.00 0.00 62 1003.4
20220818041600 76 234 0.0 1.0 0.00 0.00 0.00 61 1003.5
20220818041105 76 234 0.0 1.0 0.00 0.00 0.00 60 1003.5
20220818040559 76 234 0.0 0.0 0.00 0.00 0.00 58 1003.4
20220818040134 77 234 0.0 0.0 0.00 0.00 0.00 57 1003.4
20220818035558 77 234 0.0 0.0 0.00 0.00 0.00 56 1003.5
20220818035058 78 234 0.0 1.0 0.00 0.00 0.00 56 1003.4
20220818034558 78 234 0.0 1.0 0.00 0.00 0.00 56 1003.5
20220818034106 78 234 0.0 0.0 0.00 0.00 0.00 56 1003.6
20220818033600 79 234 0.0 0.0 0.00 0.00 0.00 55 1003.6
20220818033106 79 234 0.0 0.0 0.00 0.00 0.00 54 1003.5
20220818032102 80 213 0.0 1.0 0.00 0.00 0.00 57 1003.4
20220818031606 81 213 0.0 1.0 0.00 0.00 0.00 56 1003.4
20220818031057 81 213 0.0 1.0 0.00 0.00 0.00 57 1003.4
20220818030559 81 213 0.0 2.0 0.00 0.00 0.00 56 1003.4
20220818030103 82 207 1.0 3.0 0.00 0.00 0.00 56 1003.4
20220818025557 82 207 1.0 3.0 0.00 0.00 0.00 55 1003.3
20220818025057 82 203 0.0 3.0 0.00 0.00 0.00 54 1003.3
20220818024557 83 207 0.0 3.0 0.00 0.00 0.00 55 1003.1
20220818024102 83 222 0.0 2.0 0.00 0.00 0.00 53 1002.9
20220818023555 83 217 0.0 1.0 0.00 0.00 0.00 53 1003.0
20220818023102 83 219 1.0 1.0 0.00 0.00 0.00 53 1002.9
20220818022057 85 279 1.0 5.0 0.00 0.00 0.00 52 1002.9
20220818021558 85 279 2.0 5.0 0.00 0.00 0.00 51 1002.9
20220818021056 85 270 3.0 4.0 0.00 0.00 0.00 51 1002.8
20220818020557 85 267 2.0 6.0 0.00 0.00 0.00 51 1002.8
20220818020108 85 258 3.0 7.0 0.00 0.00 0.00 50 1002.8
20220818015559 86 259 2.0 8.0 0.00 0.00 0.00 51 1002.7
20220818015057 86 259 3.0 8.0 0.00 0.00 0.00 51 1002.7
20220818014607 86 240 2.0 7.0 0.00 0.00 0.00 51 1002.8
20220818014102 86 227 2.0 8.0 0.00 0.00 0.00 51 1002.7
20220818013559 86 246 4.0 8.0 0.00 0.00 0.00 52 1002.6
20220818013055 86 232 4.0 9.0 0.00 0.00 0.00 52 1002.7
20220818012053 87 240 4.0 7.0 0.00 0.00 0.00 50 1002.6
20220818011557 87 241 2.0 7.0 0.00 0.00 0.00 51 1002.7
20220818011059 87 241 3.0 7.0 0.00 0.00 0.00 50 1002.5
20220818010604 87 292 4.0 8.0 0.00 0.00 0.00 49 1002.5
20220818010102 87 250 4.0 9.0 0.00 0.00 0.00 50 1002.6
20220818005555 88 232 4.0 9.0 0.00 0.00 0.00 49 1002.6
20220818005050 88 278 3.0 8.0 0.00 0.00 0.00 49 1002.7
20220818004551 88 256 3.0 8.0 0.00 0.00 0.00 48 1002.7
20220818004058 88 266 2.0 8.0 0.00 0.00 0.00 47 1002.7
20220818003550 89 303 5.0 8.0 0.00 0.00 0.00 47 1002.6
20220818003053 89 286 2.0 7.0 0.00 0.00 0.00 47 1002.7
20220818002048 89 221 4.0 8.0 0.00 0.00 0.00 48 1002.8
20220818001559 88 236 4.0 8.0 0.00 0.00 0.00 48 1002.7
20220818001047 89 248 3.0 8.0 0.00 0.00 0.00 46 1002.7
20220818000547 89 294 4.0 9.0 0.00 0.00 0.00 47 1002.7
20220818000051 89 285 5.0 9.0 0.00 0.00 0.00 47 1002.9
20220817235547 88 234 4.0 8.0 0.00 0.00 0.00 48 1002.9
20220817235053 89 240 2.0 8.0 0.00 0.00 0.00 47 1002.8
20220817234623 90 287 4.0 8.0 0.00 0.00 0.00 46 1002.8
20220817234044 89 265 2.0 7.0 0.00 0.00 0.00 46 1002.9
20220817233545 89 289 1.0 7.0 0.00 0.00 0.00 47 1002.9
20220817233045 89 248 2.0 7.0 0.00 0.00 0.00 47 1003.0
20220817232044 88 163 0.0 2.0 0.00 0.00 0.00 49 1003.2
20220817231544 88 337 1.0 2.0 0.00 0.00 0.00 48 1003.2
20220817231046 88 304 0.0 2.0 0.00 0.00 0.00 48 1003.3
20220817230544 88 63 0.0 3.0 0.00 0.00 0.00 48 1003.3
20220817230048 89 42 0.0 3.0 0.00 0.00 0.00 47 1003.4
20220817225542 89 218 0.0 1.0 0.00 0.00 0.00 48 1003.5
20220817225042 88 226 0.0 2.0 0.00 0.00 0.00 47 1003.6
20220817224544 88 225 0.0 4.0 0.00 0.00 0.00 49 1003.6
20220817224043 88 11 0.0 4.0 0.00 0.00 0.00 48 1003.7
20220817223540 88 298 0.0 3.0 0.00 0.00 0.00 49 1003.7
20220817223104 88 31 0.0 6.0 0.00 0.00 0.00 48 1003.8
20220817222036 87 209 3.0 8.0 0.00 0.00 0.00 48 1004.1
20220817221540 88 205 0.0 5.0 0.00 0.00 0.00 49 1004.0
20220817221036 88 234 1.0 4.0 0.00 0.00 0.00 48 1004.2